• în România
  • Lista ţărilor
  • Pe 7 zile
  • Temperatura apei
  • Hartă satelitară
  • Meteo pe hartă
  • Widget-uri
  • user-avatar
    Intrare

    Meteo pe oră la Booué

    Astăzi, 25 Mai, Vineri

    Timp Temperatura Precipitaţii Vânt Presiune Umiditate
    00:00 +24°C° 0 mm 1 m/s 734 mmHg 95%
    01:00 +24°C° 0 mm 1 m/s 734 mmHg 97%
    02:00 +24°C° 0 mm 1 m/s 734 mmHg 98%
    03:00 +22°C° 0 mm 0 m/s 733 mmHg 98%
    04:00 +22°C° 0 mm 0 m/s 733 mmHg 99%
    05:00 +22°C° 0 mm 0 m/s 734 mmHg 98%
    06:00 +22°C° 0 mm 0 m/s 734 mmHg 97%
    07:00 +23°C° 0 mm 0 m/s 735 mmHg 96%
    08:00 +24°C° 0 mm 0 m/s 735 mmHg 89%
    09:00 +27°C° 0 mm 1 m/s 735 mmHg 82%
    10:00 +29°C° 0 mm 1 m/s 735 mmHg 75%
    11:00 +30°C° 0,1 mm 1 m/s 735 mmHg 70%
    12:00 +31°C° 0,1 mm 1 m/s 734 mmHg 66%
    13:00 +32°C° 0,1 mm 1 m/s 734 mmHg 61%
    14:00 +32°C° 0,1 mm 1 m/s 733 mmHg 61%
    15:00 +32°C° 0,1 mm 1 m/s 733 mmHg 61%
    16:00 +32°C° 0,1 mm 1 m/s 732 mmHg 62%
    17:00 +30°C° 0,2 mm 1 m/s 732 mmHg 70%
    18:00 +28°C° 0,2 mm 1 m/s 733 mmHg 78%
    19:00 +27°C° 0,2 mm 1 m/s 733 mmHg 86%
    20:00 +26°C° 0,9 mm 1 m/s 734 mmHg 89%
    21:00 +25°C° 0,9 mm 1 m/s 734 mmHg 91%
    22:00 +25°C° 0,9 mm 1 m/s 735 mmHg 94%
    23:00 +25°C° 0,1 mm 1 m/s 735 mmHg 94%

    Mâine, 26 Mai, Sâmbătă

    Timp Temperatura Precipitaţii Vânt Presiune Umiditate
    00:00 +24°C° 0,1 mm 1 m/s 735 mmHg 95%
    01:00 +24°C° 0,1 mm 1 m/s 734 mmHg 95%
    02:00 +24°C° 0 mm 1 m/s 734 mmHg 96%
    03:00 +22°C° 0 mm 0 m/s 734 mmHg 96%
    04:00 +22°C° 0 mm 0 m/s 733 mmHg 97%
    05:00 +22°C° 0 mm 0 m/s 734 mmHg 96%
    06:00 +22°C° 0 mm 0 m/s 734 mmHg 95%
    07:00 +22°C° 0 mm 0 m/s 734 mmHg 94%
    08:00 +25°C° 0 mm 0 m/s 735 mmHg 85%
    09:00 +27°C° 0 mm 0 m/s 735 mmHg 75%
    10:00 +31°C° 0 mm 1 m/s 735 mmHg 65%
    11:00 +31°C° 0 mm 0 m/s 735 mmHg 59%
    12:00 +32°C° 0 mm 0 m/s 734 mmHg 53%
    13:00 +34°C° 0 mm 0 m/s 734 mmHg 46%
    14:00 +35°C° 0,1 mm 1 m/s 733 mmHg 49%
    15:00 +34°C° 0,1 mm 1 m/s 732 mmHg 51%
    16:00 +33°C° 0,1 mm 1 m/s 732 mmHg 54%
    17:00 +32°C° 0,2 mm 1 m/s 732 mmHg 62%
    18:00 +30°C° 0,2 mm 1 m/s 732 mmHg 70%
    19:00 +28°C° 0,2 mm 1 m/s 733 mmHg 78%
    20:00 +27°C° 0,3 mm 1 m/s 733 mmHg 82%
    21:00 +26°C° 0,3 mm 1 m/s 734 mmHg 86%
    22:00 +25°C° 0,3 mm 1 m/s 734 mmHg 90%
    23:00 +25°C° 0,2 mm 1 m/s 734 mmHg 92%

    Poimâine, 27 Mai, Duminică

    Timp Temperatura Precipitaţii Vânt Presiune Umiditate
    00:00 +25°C° 0,2 mm 1 m/s 735 mmHg 93%
    01:00 +25°C° 0,2 mm 1 m/s 735 mmHg 95%
    02:00 +25°C° 0 mm 1 m/s 734 mmHg 96%
    03:00 +24°C° 0 mm 1 m/s 734 mmHg 96%
    04:00 +24°C° 0 mm 1 m/s 734 mmHg 97%
    05:00 +25°C° 0 mm 1 m/s 734 mmHg 96%
    06:00 +25°C° 0 mm 1 m/s 735 mmHg 96%
    07:00 +23°C° 0 mm 0 m/s 735 mmHg 95%
    08:00 +26°C° 0 mm 1 m/s 736 mmHg 89%
    09:00 +27°C° 0 mm 1 m/s 736 mmHg 83%
    10:00 +29°C° 0 mm 1 m/s 737 mmHg 77%
    11:00 +30°C° 0 mm 1 m/s 736 mmHg 71%
    12:00 +32°C° 0 mm 1 m/s 735 mmHg 65%
    13:00 +33°C° 0 mm 1 m/s 735 mmHg 58%
    14:00 +33°C° 0,4 mm 1 m/s 734 mmHg 60%
    15:00 +32°C° 0,4 mm 1 m/s 734 mmHg 63%
    16:00 +32°C° 0,4 mm 1 m/s 733 mmHg 65%
    17:00 +30°C° 0,7 mm 1 m/s 734 mmHg 73%
    18:00 +28°C° 0,7 mm 1 m/s 734 mmHg 82%
    19:00 +24°C° 0,7 mm 0 m/s 735 mmHg 91%
    20:00 +26°C° 1,1 mm 1 m/s 735 mmHg 92%
    21:00 +26°C° 1,1 mm 1 m/s 736 mmHg 94%
    22:00 +25°C° 1,1 mm 1 m/s 736 mmHg 95%
    23:00 +25°C° 0,5 mm 1 m/s 736 mmHg 96%

    28 Mai, Luni

    Timp Temperatura Precipitaţii Vânt Presiune Umiditate
    00:00 +25°C° 0,5 mm 1 m/s 736 mmHg 96%
    01:00 +25°C° 0,5 mm 1 m/s 736 mmHg 96%
    02:00 +24°C° 0,1 mm 1 m/s 735 mmHg 97%
    03:00 +24°C° 0,1 mm 1 m/s 735 mmHg 97%
    04:00 +24°C° 0,1 mm 1 m/s 735 mmHg 98%
    05:00 +24°C° 0 mm 1 m/s 735 mmHg 97%
    06:00 +24°C° 0 mm 1 m/s 736 mmHg 97%
    07:00 +25°C° 0 mm 1 m/s 736 mmHg 96%
    08:00 +26°C° 0 mm 1 m/s 737 mmHg 87%
    09:00 +28°C° 0 mm 1 m/s 737 mmHg 78%
    10:00 +30°C° 0 mm 1 m/s 737 mmHg 69%
    11:00 +31°C° 0,1 mm 1 m/s 736 mmHg 65%
    12:00 +32°C° 0,1 mm 1 m/s 736 mmHg 62%
    13:00 +33°C° 0,1 mm 1 m/s 735 mmHg 59%
    14:00 +32°C° 1 mm 1 m/s 734 mmHg 65%
    15:00 +31°C° 1 mm 1 m/s 734 mmHg 71%
    16:00 +31°C° 1 mm 1 m/s 734 mmHg 77%
    17:00 +29°C° 1,5 mm 1 m/s 734 mmHg 82%
    18:00 +28°C° 1,5 mm 1 m/s 734 mmHg 86%
    19:00 +26°C° 1,5 mm 1 m/s 735 mmHg 91%
    20:00 +26°C° 2,2 mm 1 m/s 735 mmHg 92%
    21:00 +25°C° 2,2 mm 1 m/s 736 mmHg 93%
    22:00 +25°C° 2,2 mm 1 m/s 737 mmHg 94%
    23:00 +25°C° 0,3 mm 1 m/s 736 mmHg 94%

    29 Mai, Marţi

    Timp Temperatura Precipitaţii Vânt Presiune Umiditate
    00:00 +25°C° 0,3 mm 1 m/s 736 mmHg 95%
    01:00 +24°C° 0,3 mm 1 m/s 736 mmHg 96%
    02:00 +24°C° 0,1 mm 1 m/s 735 mmHg 96%
    03:00 +24°C° 0,1 mm 1 m/s 735 mmHg 97%
    04:00 +24°C° 0,1 mm 1 m/s 735 mmHg 97%
    05:00 +24°C° 0 mm 1 m/s 735 mmHg 97%
    06:00 +24°C° 0 mm 1 m/s 736 mmHg 97%
    07:00 +22°C° 0 mm 0 m/s 736 mmHg 97%
    08:00 +25°C° 0,1 mm 1 m/s 736 mmHg 95%
    09:00 +26°C° 0,1 mm 1 m/s 737 mmHg 92%
    10:00 +27°C° 0,1 mm 1 m/s 737 mmHg 90%
    11:00 +28°C° 0,1 mm 1 m/s 736 mmHg 85%
    12:00 +28°C° 0,1 mm 1 m/s 735 mmHg 80%
    13:00 +29°C° 0,1 mm 1 m/s 735 mmHg 75%
    14:00 +30°C° 0,1 mm 1 m/s 734 mmHg 73%
    15:00 +30°C° 0,1 mm 1 m/s 733 mmHg 72%
    16:00 +30°C° 0,1 mm 1 m/s 733 mmHg 71%
    17:00 +29°C° 0,3 mm 1 m/s 733 mmHg 77%
    18:00 +27°C° 0,3 mm 1 m/s 734 mmHg 83%
    19:00 +26°C° 0,3 mm 1 m/s 734 mmHg 89%
    20:00 +24°C° 1,1 mm 0 m/s 735 mmHg 90%
    21:00 +24°C° 1,1 mm 0 m/s 735 mmHg 91%
    22:00 +23°C° 1,1 mm 0 m/s 736 mmHg 93%
    23:00 +23°C° 0,3 mm 0 m/s 735 mmHg 93%

    30 Mai, Miercuri

    Timp Temperatura Precipitaţii Vânt Presiune Umiditate
    00:00 +23°C° 0,3 mm 0 m/s 735 mmHg 93%
    01:00 +25°C° 0,3 mm 1 m/s 735 mmHg 94%
    02:00 +24°C° 0,1 mm 1 m/s 735 mmHg 94%
    03:00 +24°C° 0,1 mm 1 m/s 734 mmHg 95%
    04:00 +24°C° 0,1 mm 1 m/s 734 mmHg 96%
    05:00 +24°C° 0,1 mm 1 m/s 734 mmHg 96%
    06:00 +24°C° 0,1 mm 1 m/s 735 mmHg 96%
    07:00 +24°C° 0,1 mm 1 m/s 735 mmHg 96%
    08:00 +25°C° 0,4 mm 1 m/s 735 mmHg 95%
    09:00 +25°C° 0,4 mm 1 m/s 736 mmHg 94%
    10:00 +26°C° 0,4 mm 1 m/s 736 mmHg 93%
    11:00 +27°C° 0,1 mm 1 m/s 735 mmHg 87%
    12:00 +28°C° 0,1 mm 1 m/s 735 mmHg 82%
    13:00 +29°C° 0,1 mm 1 m/s 734 mmHg 76%
    14:00 +30°C° 0 mm 1 m/s 733 mmHg 72%
    15:00 +31°C° 0 mm 1 m/s 733 mmHg 68%
    16:00 +31°C° 0 mm 1 m/s 732 mmHg 63%
    17:00 +30°C° 0,3 mm 1 m/s 733 mmHg 71%
    18:00 +28°C° 0,3 mm 1 m/s 734 mmHg 78%
    19:00 +26°C° 0,3 mm 1 m/s 734 mmHg 86%
    20:00 +24°C° 1,8 mm 0 m/s 735 mmHg 88%
    21:00 +23°C° 1,8 mm 0 m/s 735 mmHg 90%
    22:00 +23°C° 1,8 mm 0 m/s 736 mmHg 92%
    23:00 +23°C° 1,1 mm 0 m/s 735 mmHg 93%
    Arată mai mult